Regional Weather Roundup
Issued by NWS

Home | Current Version | Previous Version | Text Only | Print | Product List | Glossary Off
Versions: 1 2 3 4 5 6 7 8 9 10 11 12 13 14 15 16 17 18 19 20 21 22 23 24 25 26 27 28 29 30 31 32 33 34 35 36 37 38 39 40 41 42 43 44 45 46 47 48 49 50

000
ASUS43 KDMX 161201
RWRIA

WEATHER ROUNDUP FOR IOWA
NATIONAL WEATHER SERVICE DES MOINES IA
700 AM CDT WED AUG 16 2017

NOTE: "FAIR" INDICATES FEW OR NO CLOUDS BELOW 12,000 FEET WITH NO
SIGNIFICANT WEATHER AND/OR OBSTRUCTIONS TO VISIBILITY.

* - THESE STATIONS ARE NOT NWS STATIONS...THUS NOT UNDER NWS
QUALITY CONTROL.  THEY ALSO DO NOT REPORT WEATHER SUCH
AS PRECIPITATION OR FOG.

IAZ001>003-012>014-020>022-031>034-043>046-161300-
   NORTHWEST IOWA

CITY           SKY/WX    TMP DP  RH WIND       PRES   REMARKS
CARROLL *      FOG       70  70 100 SE8       29.85R VSB 1/4
CHEROKEE *     RAIN      68  68 100 NE3       29.84F
DENISON *      CLOUDY    70  70 100 E10       29.83F FOG
LE MARS *      LGT RAIN  66  66 100 SW7G13    29.85R
ORANGE CITY *  CLOUDY    66  66 100 E5        29.85S FOG
SHELDON *      CLOUDY    66  66 100 E6        29.85S FOG
SIOUX CITY     RAIN      67  67 100 E15       29.81F
6HR MIN TEMP:  66; 6HR MAX TEMP:  68; 6HR PCP:  0.92;

SPENCER        LGT RAIN  68  68 100 E6        29.87F VSB 1/4
6HR MIN TEMP:  68; 6HR MAX TEMP:  68; 6HR PCP:  0.02;

STORM LAKE *   FOG       68  68 100 E7        29.85F VSB<1/4
$$

IAZ055>058-069>071-079>083-090>094-161300-
   SOUTHWEST IOWA

CITY           SKY/WX    TMP DP  RH WIND       PRES   REMARKS
ATLANTIC *     CLOUDY    72  70  94 E3        29.81S
AUDUBON *      CLOUDY    70  66  88 E8        29.84S FOG
CLARINDA *       N/A     72  70  94 SE7       29.82S
COUNCIL BLFS * PTCLDY    70  70 100 SE12      29.77F
CRESTON *      PTCLDY    68  68 100 E9        29.86R FOG
HARLAN  *      CLOUDY    70  70 100 E6        29.83F FOG
LAMONI         CLEAR     69  68  96 SE6       29.84S
6HR MIN TEMP:  68; 6HR MAX TEMP:  71;

RED OAK *      CLOUDY    72  70  94 SE5       29.80R
SHENANDOAH *   CLOUDY    72  70  94 SE8       29.79R
$$

IAZ047>049-059>061-072>074-084-161300-
   CENTRAL IOWA

CITY           SKY/WX    TMP DP  RH WIND       PRES   REMARKS
AMES           CLEAR     67  67 100 SE6       29.86S FOG
6HR MIN TEMP:  66; 6HR MAX TEMP:  67;

ANKENY *       PTCLDY    68  68 100 CALM      29.86S FOG
BOONE *        CLOUDY    66  66 100 SE10      29.86R FOG
CHARITON *     CLEAR     68  68 100 E8        29.86S FOG
DES MOINES     CLOUDY    71  69  93 E8        29.84F
6HR MIN TEMP:  69; 6HR MAX TEMP:  71;

GRINNELL*      CLOUDY    66  65  96 E9        29.90S FOG
KNOXVILLE *    MOCLDY    68  68 100 E7        29.85S FOG
MARSHALLTOWN   CLEAR     66  66 100 SE7       29.88S FOG
6HR MIN TEMP:  65; 6HR MAX TEMP:  66;

NEWTON *       CLOUDY    68  66  94 E10       29.88S FOG
PELLA *        CLOUDY    68  67  96 E5        29.89R FOG
PERRY *        CLOUDY    70  69  98 E5        29.85R FOG
$$

IAZ004>006-015-016-023>025-035-036-161300-
   NORTH CENTRAL IOWA

CITY           SKY/WX    TMP DP  RH WIND       PRES   REMARKS
ALGONA *       CLOUDY    66  66 100 SE7       29.88S FOG
CLARION *      MOCLDY    66  66 100 SE10      29.88R FOG
ESTHERVILLE    FOG       65  65 100 E6        29.87F VSB 1/2
6HR MIN TEMP:  65; 6HR MAX TEMP:  66; 6HR PCP:  0.27;

FORT DODGE *   CLOUDY    64  63  94 CALM      29.88S
MASON CITY     PTCLDY    64  63  96 SE10      29.91S FOG
6HR MIN TEMP:  64; 6HR MAX TEMP:  65;

FOREST CITY *  CLOUDY    64  64 100 SE5       29.89S FOG
WEBSTER CITY * CLOUDY    64  64 100 SE5       29.85S FOG
IOWA FALLS *     N/A     65  64  97 E6        29.89S FOG
$$

IAZ007>011-017>019-026>030-037>042-050>054-066-161300-
   NORTHEAST IOWA

CITY           SKY/WX    TMP DP  RH WIND       PRES   REMARKS
CEDAR RAPIDS   PTCLDY    65  65 100 E10       29.91S FOG
6HR MIN TEMP:  65; 6HR MAX TEMP:  66;

CHARLES CITY * MOCLDY    66  66 100 SE12      29.92S FOG
CLINTON *      CLOUDY    65  63  93 E7        29.97F
DECORAH *      CLOUDY    63  61  94 SE10      29.95S
DUBUQUE        CLOUDY    63  61  93 NE6       29.99R
6HR MIN TEMP:  63; 6HR MAX TEMP:  66; 6HR PCP:  0.16;

MONTICELLO *   CLOUDY    66  63  88 E6G13     29.95S
OELWEIN *      CLEAR     64  64 100 E12       29.94S FOG
WATERLOO       PTCLDY    66  64  93 E12       29.90S FOG
6HR MIN TEMP:  65; 6HR MAX TEMP:  67;

$$

IAZ064-065-067-068-078-161300-
   EAST CENTRAL IOWA

CITY           SKY/WX    TMP DP  RH WIND       PRES   REMARKS
DAVENPORT      CLOUDY    66  64  93 E10       29.97  FOG
6HR MIN TEMP:  65; 6HR MAX TEMP:  69;

IOWA CITY      CLEAR     70  67  90 E7        29.93S
6HR MIN TEMP:  69; 6HR MAX TEMP:  71;

MUSCATINE *    CLEAR     66  64  94 NE3       29.93S FOG
QUAD CITIES    CLEAR     67  64  90 E9        29.95R FOG
6HR MIN TEMP:  67; 6HR MAX TEMP:  72;

$$

IAZ062-063-075>077-085>089-095>099-161300-
   SOUTHEAST IOWA

CITY           SKY/WX    TMP DP  RH WIND       PRES   REMARKS
BURLINGTON     CLOUDY    70  69  97 E7        29.91F
6HR MIN TEMP:  70; 6HR MAX TEMP:  74;

FAIRFIELD *    CLOUDY    70  68  94 SE9       29.89S FOG
FORT MADISON * CLOUDY    70  70 100 E5        29.92S FOG
KEOKUK *       CLOUDY    70  70 100 E7        29.90S
OSKALOOSA *      N/A     68  67  96 SE7       29.89S FOG
OTTUMWA        CLOUDY    69  68  96 E8        29.88S FOG
6HR MIN TEMP:  68; 6HR MAX TEMP:  71;

WASHINGTON *   CLEAR     68  68 100 E8        29.91F FOG
$$

ABBREVIATIONS USED IN REMARKS
   TC - TEMPERATURES IN CELSIUS
  WCI - WIND CHILL INDEX
   HX - HEAT INDEX
  VSB - VISIBILITY
$$




USA.gov is the U.S. government's official web portal to all federal, state and local government web resources and services.